Canyon City, OR

1:29 PM PST on January 19, 2017 (GMT -0800)
Grant County Regional

Weather History for KGCD - February, 2014

Change the Weather History Date:

Thursday, February 20, 2014

  Actual Average (KBNO) Record (KBNO)
Temperature  
Mean Temperature 37 °F -  
Max Temperature 42 °F 37 °F 63 °F (1995)
Min Temperature 32 °F 18 °F -1 °F (2006)
Degree Days  
Heating Degree Days 28    
Moisture  
Dew Point 28 °F    
Average Humidity 68    
Maximum Humidity 76    
Minimum Humidity 61    
Precipitation  
Precipitation 0.00 in - - ()
Sea Level Pressure  
Sea Level Pressure 30.13 in    
Wind  
Wind Speed 13 mph (SW)    
Max Wind Speed 21 mph    
Max Gust Speed 30 mph    
Visibility 10 miles    
Events      
Averages and records for this station are not official NWS values.
T = Trace of Precipitation, MM = Missing Value Source: NWS Daily Summary

Daily Weather History Graph

Daily Weather History Graph

Search for Another Location

Airport or City:

Trip Planner

Search our weather history database for the weather conditions in past years. The results will help you decide how hot, cold, wet, or windy it might be!

Date:

Astronomy

Feb. 20, 2014 Rise Set
Actual Time 6:47 AM PST 5:31 PM PST
Civil Twilight 6:18 AM PST 6:01 PM PST
Nautical Twilight 5:44 AM PST 6:35 PM PST
Astronomical Twilight 5:10 AM PST 7:08 PM PST
Moon 11:46 PM PST (2/20) 9:19 AM PST (2/20)
Length of Visible Light 11h 43m
Length of Day
10h 44m
Waning Gibbous, 70% of the Moon is Illuminated
Feb 20
Waning Gibbous
Feb 22
Last Quarter
Mar 1
New
Mar 8
First Quarter
Mar 16
Full

Hourly Weather History & Observations

Time (PST) Temp. Windchill Dew Point Humidity Pressure Visibility Wind Dir Wind Speed Gust Speed Precip Events Conditions
12:15 AM 34.3 °F 25.5 °F 23.7 °F 65% 30.16 in 10.0 mi SW 12.7 mph - N/A   Overcast
12:35 AM 34.3 °F 25.5 °F 23.9 °F 66% 30.17 in 10.0 mi SW 12.7 mph - N/A   Overcast
12:55 AM 33.6 °F 24.6 °F 24.8 °F 70% 30.17 in 10.0 mi SW 12.7 mph - N/A   Overcast
1:15 AM 32.4 °F 24.0 °F 25.5 °F 76% 30.17 in 10.0 mi SSW 10.4 mph - N/A   Overcast
1:35 AM 32.7 °F 23.0 °F 25.5 °F 75% 30.17 in 10.0 mi South 13.8 mph 20.7 mph N/A   Overcast
1:55 AM 33.1 °F 23.4 °F 25.0 °F 72% 30.17 in 10.0 mi South 13.8 mph - N/A   Overcast
2:15 AM 33.3 °F 25.1 °F 25.0 °F 72% 30.18 in 10.0 mi SSW 10.4 mph 13.8 mph N/A   Overcast
2:35 AM 33.4 °F 23.9 °F 24.8 °F 71% 30.17 in 10.0 mi SSW 13.8 mph - N/A   Overcast
2:55 AM 33.8 °F 23.9 °F 24.8 °F 70% 30.17 in 10.0 mi South 15.0 mph 21.9 mph N/A   Overcast
3:15 AM 33.8 °F 24.3 °F 24.8 °F 70% 30.17 in 10.0 mi SSW 13.8 mph - N/A   Overcast
3:35 AM 33.4 °F 24.3 °F 25.0 °F 71% 30.16 in 10.0 mi South 12.7 mph 18.4 mph N/A   Overcast
3:55 AM 33.4 °F 23.1 °F 24.8 °F 71% 30.16 in 10.0 mi South 16.1 mph 21.9 mph N/A   Overcast
4:15 AM 33.4 °F 23.5 °F 25.2 °F 72% 30.16 in 10.0 mi South 15.0 mph - N/A   Overcast
4:35 AM 33.8 °F 24.3 °F 24.8 °F 70% 30.16 in 10.0 mi SSW 13.8 mph - N/A   Overcast
4:55 AM 33.8 °F 24.3 °F 24.8 °F 70% 30.16 in 10.0 mi South 13.8 mph - N/A   Overcast
5:15 AM 33.8 °F 24.3 °F 25.0 °F 70% 30.16 in 10.0 mi South 13.8 mph - N/A   Overcast
5:35 AM 33.6 °F 23.7 °F 25.2 °F 71% 30.15 in 10.0 mi South 15.0 mph - N/A   Overcast
5:55 AM 33.3 °F 22.1 °F 24.8 °F 71% 30.15 in 10.0 mi South 18.4 mph 24.2 mph N/A   Overcast
6:15 AM 33.8 °F 23.5 °F 24.6 °F 69% 30.15 in 10.0 mi South 16.1 mph - N/A   Overcast
6:35 AM 33.8 °F 23.2 °F 24.8 °F 70% 30.14 in 10.0 mi South 17.3 mph 23.0 mph N/A   Overcast
6:55 AM 33.8 °F 23.2 °F 24.8 °F 70% 30.14 in 10.0 mi South 17.3 mph - N/A   Overcast
7:15 AM 33.8 °F 22.5 °F 24.8 °F 70% 30.14 in 10.0 mi South 19.6 mph 24.2 mph N/A   Overcast
7:35 AM 33.8 °F 23.9 °F 25.0 °F 70% 30.14 in 10.0 mi SSW 15.0 mph 21.9 mph N/A   Mostly Cloudy
7:55 AM 34.3 °F 24.2 °F 25.0 °F 69% 30.14 in 10.0 mi South 16.1 mph 21.9 mph N/A   Mostly Cloudy
8:15 AM 35.6 °F 26.2 °F 25.7 °F 67% 30.14 in 10.0 mi SSW 15.0 mph 19.6 mph N/A   Overcast
8:35 AM 34.9 °F 25.7 °F 25.5 °F 69% 30.14 in 10.0 mi South 13.8 mph - N/A   Mostly Cloudy
8:55 AM 36.1 °F 26.9 °F 25.7 °F 66% 30.14 in 10.0 mi SSW 15.0 mph 21.9 mph N/A   Overcast
9:15 AM 36.5 °F 27.4 °F 25.9 °F 65% 30.14 in 10.0 mi SSW 15.0 mph 23.0 mph N/A   Overcast
9:35 AM 36.1 °F 26.9 °F 26.1 °F 67% 30.14 in 10.0 mi SSW 15.0 mph 24.2 mph N/A   Overcast
9:55 AM 36.5 °F 27.4 °F 26.4 °F 67% 30.14 in 10.0 mi South 15.0 mph 25.3 mph N/A   Overcast
10:15 AM 37.0 °F 27.7 °F 27.3 °F 68% 30.14 in 10.0 mi SSW 16.1 mph 21.9 mph N/A   Overcast
10:35 AM 39.2 °F 30.5 °F 28.0 °F 64% 30.13 in 10.0 mi SSW 16.1 mph 19.6 mph N/A   Overcast
10:55 AM 40.3 °F 31.3 °F 28.8 °F 63% 30.13 in 10.0 mi SSW 18.4 mph 25.3 mph N/A   Overcast
11:15 AM 41.7 °F 33.1 °F 29.8 °F 63% 30.12 in 10.0 mi SSW 18.4 mph 23.0 mph N/A   Overcast
11:35 AM 41.9 °F 33.4 °F 29.1 °F 61% 30.12 in 10.0 mi SW 18.4 mph 24.2 mph N/A   Overcast
11:55 AM 41.4 °F 32.1 °F 29.7 °F 63% 30.12 in 10.0 mi SW 20.7 mph 26.5 mph N/A   Overcast
12:15 PM 41.2 °F 33.0 °F 29.3 °F 63% 30.12 in 10.0 mi SW 16.1 mph - N/A   Overcast
12:35 PM 41.9 °F 33.1 °F 30.0 °F 63% 30.11 in 10.0 mi SW 19.6 mph - N/A   Overcast
12:55 PM 41.9 °F 34.0 °F 30.4 °F 64% 30.11 in 10.0 mi SW 16.1 mph 24.2 mph N/A   Unknown
1:15 PM 41.5 °F 33.8 °F 31.1 °F 66% 30.10 in 10.0 mi SW 15.0 mph 24.2 mph N/A   Unknown
1:35 PM 41.9 °F 36.3 °F 29.8 °F 62% 30.11 in 10.0 mi WSW 9.2 mph 19.6 mph N/A   Overcast
1:55 PM 42.6 °F 35.6 °F 30.0 °F 61% 30.11 in 10.0 mi West 13.8 mph 23.0 mph N/A   Overcast
2:15 PM 42.8 °F 34.0 °F 30.2 °F 61% 30.10 in 10.0 mi West 20.7 mph 29.9 mph N/A   Mostly Cloudy
2:35 PM 42.1 °F 33.9 °F 31.3 °F 66% 30.11 in 10.0 mi West 17.3 mph 25.3 mph N/A   Overcast
2:55 PM 41.5 °F 34.2 °F 31.1 °F 66% 30.11 in 10.0 mi West 13.8 mph 21.9 mph N/A   Overcast
3:15 PM 41.4 °F 35.7 °F 31.3 °F 67% 30.11 in 10.0 mi NW 9.2 mph - N/A   Overcast
3:35 PM 41.4 °F 38.4 °F 31.8 °F 69% 30.11 in 10.0 mi WSW 4.6 mph - N/A   Overcast
3:55 PM 41.5 °F - 31.5 °F 67% 30.11 in 10.0 mi Calm Calm - N/A   Overcast
4:15 PM 41.5 °F 39.6 °F 31.8 °F 68% 30.11 in 10.0 mi WSW 3.5 mph - N/A   Overcast
4:35 PM 41.2 °F 39.2 °F 31.8 °F 69% 30.10 in 10.0 mi SW 3.5 mph - N/A   Overcast
4:55 PM 40.8 °F 36.9 °F 31.8 °F 70% 30.11 in 10.0 mi West 5.8 mph - N/A   Overcast
5:15 PM 40.5 °F 36.5 °F 31.8 °F 71% 30.11 in 10.0 mi WSW 5.8 mph - N/A   Overcast
5:35 PM 40.5 °F 36.5 °F 31.6 °F 71% 30.10 in 10.0 mi WSW 5.8 mph - N/A   Overcast
5:55 PM 40.3 °F 36.3 °F 31.6 °F 71% 30.11 in 10.0 mi SSW 5.8 mph - N/A   Overcast
6:15 PM 40.5 °F 37.3 °F 31.1 °F 69% 30.11 in 10.0 mi SW 4.6 mph - N/A   Overcast
6:35 PM 40.6 °F 36.7 °F 30.9 °F 68% 30.11 in 10.0 mi WSW 5.8 mph - N/A   Overcast
6:55 PM 40.5 °F 38.4 °F 30.7 °F 68% 30.12 in 10.0 mi SW 3.5 mph - N/A   Overcast
7:15 PM 41.0 °F 37.1 °F 30.4 °F 66% 30.12 in 10.0 mi WSW 5.8 mph - N/A   Overcast
7:35 PM 40.8 °F 37.8 °F 30.2 °F 66% 30.12 in 10.0 mi WSW 4.6 mph - N/A   Overcast
7:55 PM 40.1 °F 34.7 °F 30.7 °F 69% 30.12 in 10.0 mi West 8.1 mph - N/A   Overcast
8:15 PM 40.1 °F 35.3 °F 30.7 °F 69% 30.13 in 10.0 mi West 6.9 mph - N/A   Overcast
8:35 PM 40.6 °F 33.8 °F 29.5 °F 64% 30.13 in 10.0 mi West 11.5 mph - N/A   Overcast
8:55 PM 40.5 °F 33.2 °F 29.7 °F 65% 30.13 in 10.0 mi West 12.7 mph - N/A   Overcast
9:15 PM 40.5 °F 34.6 °F 29.3 °F 64% 30.13 in 10.0 mi WSW 9.2 mph - N/A   Overcast
9:35 PM 40.5 °F 32.8 °F 28.9 °F 64% 30.13 in 10.0 mi West 13.8 mph - N/A   Overcast
9:55 PM 40.1 °F 34.1 °F 29.3 °F 65% 30.14 in 10.0 mi West 9.2 mph - N/A   Overcast
10:15 PM 40.1 °F 35.3 °F 29.3 °F 65% 30.14 in 10.0 mi West 6.9 mph - N/A   Overcast
10:35 PM 39.7 °F 34.3 °F 29.3 °F 66% 30.13 in 10.0 mi West 8.1 mph - N/A   Overcast
10:55 PM 39.0 °F 33.4 °F 29.3 °F 68% 30.13 in 10.0 mi West 8.1 mph - N/A   Overcast
11:15 PM 37.4 °F 32.1 °F 29.1 °F 72% 30.13 in 10.0 mi West 6.9 mph - N/A   Mostly Cloudy
11:35 PM 37.8 °F - 29.1 °F 71% 30.14 in 10.0 mi Calm Calm - N/A   Mostly Cloudy
11:55 PM 39.2 °F 37.0 °F 28.6 °F 66% 30.14 in 10.0 mi West 3.5 mph - N/A   Overcast